Year,Month,Day,Hour,Minute,Value (Times are PST for barometer in hPa)
2015,08,29,00,00,1004.55
2015,08,29,00,01,1004.54
2015,08,29,00,02,1004.54
2015,08,29,00,03,1004.54
2015,08,29,00,04,1004.54
2015,08,29,00,05,1004.54
2015,08,29,00,06,1004.54
2015,08,29,00,07,1004.54
2015,08,29,00,08,1004.54
2015,08,29,00,09,1004.54
2015,08,29,00,10,1004.54
2015,08,29,00,11,1004.54
2015,08,29,00,12,1004.54
2015,08,29,00,13,1004.54
2015,08,29,00,14,1004.54
2015,08,29,00,15,1004.20
2015,08,29,00,16,1004.20
2015,08,29,00,17,1004.20
2015,08,29,00,18,1004.20
2015,08,29,00,19,1004.20
2015,08,29,00,20,1004.20
2015,08,29,00,21,1004.20
2015,08,29,00,22,1004.20
2015,08,29,00,23,1004.20
2015,08,29,00,24,1004.20
2015,08,29,00,25,1004.20
2015,08,29,00,26,1004.20
2015,08,29,00,27,1004.20
2015,08,29,00,28,1004.20
2015,08,29,00,29,1004.20
2015,08,29,00,30,1003.90
2015,08,29,00,31,1003.90
2015,08,29,00,32,1003.90
2015,08,29,00,33,1003.90
2015,08,29,00,34,1003.90
2015,08,29,00,35,1003.90
2015,08,29,00,36,1003.90
2015,08,29,00,37,1003.90
2015,08,29,00,38,1003.90
2015,08,29,00,39,1003.90
2015,08,29,00,40,1003.90
2015,08,29,00,41,1003.90
2015,08,29,00,42,1003.90
2015,08,29,00,43,1003.90
2015,08,29,00,44,1003.90
2015,08,29,00,45,1003.48
2015,08,29,00,46,1003.46
2015,08,29,00,47,1003.46
2015,08,29,00,48,1003.46
2015,08,29,00,49,1003.46
2015,08,29,00,50,1003.46
2015,08,29,00,51,1003.46
2015,08,29,00,52,1003.46
2015,08,29,00,53,1003.46
2015,08,29,00,54,1003.46
2015,08,29,00,55,1003.46
2015,08,29,00,56,1003.46
2015,08,29,00,57,1003.46
2015,08,29,00,58,1003.46
2015,08,29,00,59,1003.46
2015,08,29,01,00,1003.12
2015,08,29,01,01,1003.12
2015,08,29,01,02,1003.12
2015,08,29,01,03,1003.12
2015,08,29,01,04,1003.12
2015,08,29,01,05,1003.12
2015,08,29,01,06,1003.12
2015,08,29,01,07,1003.12
2015,08,29,01,08,1003.12
2015,08,29,01,09,1003.12
2015,08,29,01,10,1003.12
2015,08,29,01,11,1003.12
2015,08,29,01,12,1003.12
2015,08,29,01,13,1003.12
2015,08,29,01,14,1003.12
2015,08,29,01,15,1002.64
2015,08,29,01,16,1002.64
2015,08,29,01,17,1002.64
2015,08,29,01,18,1002.64
2015,08,29,01,19,1002.64
2015,08,29,01,20,1002.64
2015,08,29,01,21,1002.64
2015,08,29,01,22,1002.64
2015,08,29,01,23,1002.64
2015,08,29,01,24,1002.64
2015,08,29,01,25,1002.64
2015,08,29,01,26,1002.64
2015,08,29,01,27,1002.64
2015,08,29,01,28,1002.64
2015,08,29,01,29,1002.64
2015,08,29,01,30,1002.20
2015,08,29,01,31,1002.20
2015,08,29,01,32,1002.20
2015,08,29,01,33,1002.20
2015,08,29,01,34,1002.20
2015,08,29,01,35,1002.20
2015,08,29,01,36,1002.20
2015,08,29,01,37,1002.20
2015,08,29,01,38,1002.20
2015,08,29,01,39,1002.20
2015,08,29,01,40,1002.20
2015,08,29,01,41,1002.20
2015,08,29,01,42,1002.20
2015,08,29,01,43,1002.20
2015,08,29,01,44,1002.20
2015,08,29,01,45,1002.17
2015,08,29,01,46,1002.17
2015,08,29,01,47,1002.17
2015,08,29,01,48,1002.17
2015,08,29,01,49,1002.17
2015,08,29,01,50,1002.17
2015,08,29,01,51,1002.17
2015,08,29,01,52,1002.17
2015,08,29,01,53,1002.17
2015,08,29,01,54,1002.17
2015,08,29,01,55,1002.17
2015,08,29,01,56,1002.17
2015,08,29,01,57,1002.17
2015,08,29,01,58,1002.17
2015,08,29,01,59,1002.17
2015,08,29,02,00,1001.93
2015,08,29,02,01,1001.93
2015,08,29,02,02,1001.93
2015,08,29,02,03,1001.93
2015,08,29,02,04,1001.93
2015,08,29,02,05,1001.93
2015,08,29,02,06,1001.93
2015,08,29,02,07,1001.93
2015,08,29,02,08,1001.93
2015,08,29,02,09,1001.93
2015,08,29,02,10,1001.93
2015,08,29,02,11,1001.93
2015,08,29,02,12,1001.93
2015,08,29,02,13,1001.93
2015,08,29,02,14,1001.93
2015,08,29,02,15,1001.86
2015,08,29,02,16,1001.86
2015,08,29,02,17,1001.86
2015,08,29,02,18,1001.86
2015,08,29,02,19,1001.86
2015,08,29,02,20,1001.86
2015,08,29,02,21,1001.86
2015,08,29,02,22,1001.86
2015,08,29,02,23,1001.86
2015,08,29,02,24,1001.86
2015,08,29,02,25,1001.86
2015,08,29,02,26,1001.86
2015,08,29,02,27,1001.86
2015,08,29,02,28,1001.86
2015,08,29,02,29,1001.86
2015,08,29,02,30,1001.46
2015,08,29,02,31,1001.46
2015,08,29,02,32,1001.46
2015,08,29,02,33,1001.46
2015,08,29,02,34,1001.46
2015,08,29,02,35,1001.46
2015,08,29,02,36,1001.46
2015,08,29,02,37,1001.46
2015,08,29,02,38,1001.46
2015,08,29,02,39,1001.46
2015,08,29,02,40,1001.46
2015,08,29,02,41,1001.46
2015,08,29,02,42,1001.46
2015,08,29,02,43,1001.46
2015,08,29,02,44,1001.46
2015,08,29,02,45,1000.42
2015,08,29,02,46,1000.37
2015,08,29,02,47,1000.37
2015,08,29,02,48,1000.37
2015,08,29,02,49,1000.37
2015,08,29,02,50,1000.37
2015,08,29,02,51,1000.37
2015,08,29,02,52,1000.37
2015,08,29,02,53,1000.37
2015,08,29,02,54,1000.37
2015,08,29,02,55,1000.37
2015,08,29,02,56,1000.37
2015,08,29,02,57,1000.37
2015,08,29,02,58,1000.37
2015,08,29,02,59,1000.37
2015,08,29,03,00,999.79
2015,08,29,03,01,999.76
2015,08,29,03,02,999.76
2015,08,29,03,03,999.76
2015,08,29,03,04,999.76
2015,08,29,03,05,999.76
2015,08,29,03,06,999.76
2015,08,29,03,07,999.76
2015,08,29,03,08,999.76
2015,08,29,03,09,999.76
2015,08,29,03,10,999.76
2015,08,29,03,11,999.76
2015,08,29,03,12,999.76
2015,08,29,03,13,999.76
2015,08,29,03,14,999.76
2015,08,29,03,15,1000.22
2015,08,29,03,16,1000.24
2015,08,29,03,17,1000.24
2015,08,29,03,18,1000.24
2015,08,29,03,19,1000.24
2015,08,29,03,20,1000.24
2015,08,29,03,21,1000.24
2015,08,29,03,22,1000.24
2015,08,29,03,23,1000.24
2015,08,29,03,24,1000.24
2015,08,29,03,25,1000.24
2015,08,29,03,26,1000.24
2015,08,29,03,27,1000.24
2015,08,29,03,28,1000.24
2015,08,29,03,29,1000.24
2015,08,29,03,30,999.82
2015,08,29,03,31,999.80
2015,08,29,03,32,999.80
2015,08,29,03,33,999.80
2015,08,29,03,34,999.80
2015,08,29,03,35,999.80
2015,08,29,03,36,999.80
2015,08,29,03,37,999.80
2015,08,29,03,38,999.80
2015,08,29,03,39,999.80
2015,08,29,03,40,999.80
2015,08,29,03,41,999.80
2015,08,29,03,42,999.80
2015,08,29,03,43,999.80
2015,08,29,03,44,999.80
2015,08,29,03,45,999.32
2015,08,29,03,46,999.32
2015,08,29,03,47,999.32
2015,08,29,03,48,999.32
2015,08,29,03,49,999.32
2015,08,29,03,50,999.32
2015,08,29,03,51,999.32
2015,08,29,03,52,999.32
2015,08,29,03,53,999.32
2015,08,29,03,54,999.32
2015,08,29,03,55,999.32
2015,08,29,03,56,999.32
2015,08,29,03,57,999.32
2015,08,29,03,58,999.32
2015,08,29,03,59,999.32
2015,08,29,04,00,999.16
2015,08,29,04,01,999.15
2015,08,29,04,02,999.15
2015,08,29,04,03,999.15
2015,08,29,04,04,999.15
2015,08,29,04,05,999.15
2015,08,29,04,06,999.15
2015,08,29,04,07,999.15
2015,08,29,04,08,999.15
2015,08,29,04,09,999.15
2015,08,29,04,10,999.15
2015,08,29,04,11,999.15
2015,08,29,04,12,999.15
2015,08,29,04,13,999.15
2015,08,29,04,14,999.15
2015,08,29,04,15,998.41
2015,08,29,04,16,998.41
2015,08,29,04,17,998.41
2015,08,29,04,18,998.41
2015,08,29,04,19,998.41
2015,08,29,04,20,998.41
2015,08,29,04,21,998.41
2015,08,29,04,22,998.41
2015,08,29,04,23,998.41
2015,08,29,04,24,998.41
2015,08,29,04,25,998.41
2015,08,29,04,26,998.41
2015,08,29,04,27,998.41
2015,08,29,04,28,998.41
2015,08,29,04,29,998.41
2015,08,29,04,30,997.96
2015,08,29,04,31,997.94
2015,08,29,04,32,997.94
2015,08,29,04,33,997.94
2015,08,29,04,34,997.94
2015,08,29,04,35,997.94
2015,08,29,04,36,997.94
2015,08,29,04,37,997.94
2015,08,29,04,38,997.94
2015,08,29,04,39,997.94
2015,08,29,04,40,997.94
2015,08,29,04,41,997.94
2015,08,29,04,42,997.94
2015,08,29,04,43,997.94
2015,08,29,04,44,997.94
2015,08,29,04,45,997.32
2015,08,29,04,46,997.29
2015,08,29,04,47,997.29
2015,08,29,04,48,997.29
2015,08,29,04,49,997.29
2015,08,29,04,50,997.29
2015,08,29,04,51,997.29
2015,08,29,04,52,997.29
2015,08,29,04,53,997.29
2015,08,29,04,54,997.29
2015,08,29,04,55,997.29
2015,08,29,04,56,997.29
2015,08,29,04,57,997.29
2015,08,29,04,58,997.29
2015,08,29,04,59,997.29
2015,08,29,05,00,997.59
2015,08,29,05,01,997.60
2015,08,29,05,02,997.60
2015,08,29,05,03,997.60
2015,08,29,05,04,997.60
2015,08,29,05,05,997.60
2015,08,29,05,06,997.60
2015,08,29,05,07,997.60
2015,08,29,05,08,997.60
2015,08,29,05,09,997.60
2015,08,29,05,10,997.60
2015,08,29,05,11,997.60
2015,08,29,05,12,997.60
2015,08,29,05,13,997.60
2015,08,29,05,14,997.60
2015,08,29,05,15,997.36
2015,08,29,05,16,997.36
2015,08,29,05,17,997.36
2015,08,29,05,18,997.36
2015,08,29,05,19,997.36
2015,08,29,05,20,997.36
2015,08,29,05,21,997.36
2015,08,29,05,22,997.36
2015,08,29,05,23,997.36
2015,08,29,05,24,997.36
2015,08,29,05,25,997.36
2015,08,29,05,26,997.36
2015,08,29,05,27,997.36
2015,08,29,05,28,997.36
2015,08,29,05,29,997.36
2015,08,29,05,30,997.36
2015,08,29,05,31,997.36
2015,08,29,05,32,997.36
2015,08,29,05,33,997.36
2015,08,29,05,34,997.36
2015,08,29,05,35,997.36
2015,08,29,05,36,997.36
2015,08,29,05,37,997.36
2015,08,29,05,38,997.36
2015,08,29,05,39,997.36
2015,08,29,05,40,997.36
2015,08,29,05,41,997.36
2015,08,29,05,42,997.36
2015,08,29,05,43,997.36
2015,08,29,05,44,997.36
2015,08,29,05,45,998.27
2015,08,29,05,46,998.27
2015,08,29,05,47,998.27
2015,08,29,05,48,998.27
2015,08,29,05,49,998.27
2015,08,29,05,50,998.27
2015,08,29,05,51,998.27
2015,08,29,05,52,998.27
2015,08,29,05,53,998.27
2015,08,29,05,54,998.27
2015,08,29,05,55,998.27
2015,08,29,05,56,998.27
2015,08,29,05,57,998.27
2015,08,29,05,58,998.27
2015,08,29,05,59,998.27
2015,08,29,06,00,998.65
2015,08,29,06,01,998.65
2015,08,29,06,02,998.65
2015,08,29,06,03,998.65
2015,08,29,06,04,998.65
2015,08,29,06,05,998.65
2015,08,29,06,06,998.65
2015,08,29,06,07,998.65
2015,08,29,06,08,998.65
2015,08,29,06,09,998.65
2015,08,29,06,10,998.65
2015,08,29,06,11,998.65
2015,08,29,06,12,998.65
2015,08,29,06,13,998.65
2015,08,29,06,14,998.65
2015,08,29,06,15,998.07
2015,08,29,06,16,998.04
2015,08,29,06,17,998.04
2015,08,29,06,18,998.04
2015,08,29,06,19,998.04
2015,08,29,06,20,998.04
2015,08,29,06,21,998.04
2015,08,29,06,22,998.04
2015,08,29,06,23,998.04
2015,08,29,06,24,998.04
2015,08,29,06,25,998.04
2015,08,29,06,26,998.04
2015,08,29,06,27,998.04
2015,08,29,06,28,998.04
2015,08,29,06,29,998.04
2015,08,29,06,30,997.72
2015,08,29,06,31,997.70
2015,08,29,06,32,997.70
2015,08,29,06,33,997.70
2015,08,29,06,34,997.70
2015,08,29,06,35,997.70
2015,08,29,06,36,997.70
2015,08,29,06,37,997.70
2015,08,29,06,38,997.70
2015,08,29,06,39,997.70
2015,08,29,06,40,997.70
2015,08,29,06,41,997.70
2015,08,29,06,42,997.70
2015,08,29,06,43,997.70
2015,08,29,06,44,997.70
2015,08,29,06,45,996.60
2015,08,29,06,46,996.55
2015,08,29,06,47,996.55
2015,08,29,06,48,996.55
2015,08,29,06,49,996.55
2015,08,29,06,50,996.55
2015,08,29,06,51,996.55
2015,08,29,06,52,996.55
2015,08,29,06,53,996.55
2015,08,29,06,54,996.55
2015,08,29,06,55,996.55
2015,08,29,06,56,996.55
2015,08,29,06,57,996.55
2015,08,29,06,58,996.55
2015,08,29,06,59,996.55
2015,08,29,07,00,996.13
2015,08,29,07,01,996.11
2015,08,29,07,02,996.11
2015,08,29,07,03,996.11
2015,08,29,07,04,996.11
2015,08,29,07,05,996.11
2015,08,29,07,06,996.11
2015,08,29,07,07,996.11
2015,08,29,07,08,996.11
2015,08,29,07,09,996.11
2015,08,29,07,10,996.11
2015,08,29,07,11,996.11
2015,08,29,07,12,996.11
2015,08,29,07,13,996.11
2015,08,29,07,14,996.11
2015,08,29,07,15,995.62
2015,08,29,07,16,995.60
2015,08,29,07,17,995.60
2015,08,29,07,18,995.60
2015,08,29,07,19,995.60
2015,08,29,07,20,995.60
2015,08,29,07,21,995.60
2015,08,29,07,22,995.60
2015,08,29,07,23,995.60
2015,08,29,07,24,995.60
2015,08,29,07,25,995.60
2015,08,29,07,26,995.60
2015,08,29,07,27,995.60
2015,08,29,07,28,995.60
2015,08,29,07,29,995.60
2015,08,29,07,30,995.97
2015,08,29,07,31,996.01
2015,08,29,07,32,996.01
2015,08,29,07,33,996.01
2015,08,29,07,34,996.01
2015,08,29,07,35,996.01
2015,08,29,07,36,996.01
2015,08,29,07,37,996.01
2015,08,29,07,38,996.01
2015,08,29,07,39,996.01
2015,08,29,07,40,996.01
2015,08,29,07,41,996.01
2015,08,29,07,42,996.01
2015,08,29,07,43,996.01
2015,08,29,07,44,996.01
2015,08,29,07,45,995.65
2015,08,29,07,46,995.63
2015,08,29,07,47,995.63
2015,08,29,07,48,995.63
2015,08,29,07,49,995.63
2015,08,29,07,50,995.63
2015,08,29,07,51,995.63
2015,08,29,07,52,995.63
2015,08,29,07,53,995.63
2015,08,29,07,54,995.63
2015,08,29,07,55,995.63
2015,08,29,07,56,995.63
2015,08,29,07,57,995.63
2015,08,29,07,58,995.63
2015,08,29,07,59,995.63
2015,08,29,08,00,995.86
2015,08,29,08,01,995.87
2015,08,29,08,02,995.87
2015,08,29,08,03,995.87
2015,08,29,08,04,995.87
2015,08,29,08,05,995.87
2015,08,29,08,06,995.87
2015,08,29,08,07,995.87
2015,08,29,08,08,995.87
2015,08,29,08,09,995.87
2015,08,29,08,10,995.87
2015,08,29,08,11,995.87
2015,08,29,08,12,995.87
2015,08,29,08,13,995.87
2015,08,29,08,14,995.87
2015,08,29,08,15,996.00
2015,08,29,08,16,996.01
2015,08,29,08,17,996.01
2015,08,29,08,18,996.01
2015,08,29,08,19,996.01
2015,08,29,08,20,996.01
2015,08,29,08,21,996.01
2015,08,29,08,22,996.01
2015,08,29,08,23,996.01
2015,08,29,08,24,996.01
2015,08,29,08,25,996.01
2015,08,29,08,26,996.01
2015,08,29,08,27,996.01
2015,08,29,08,28,996.01
2015,08,29,08,29,996.01
2015,08,29,08,30,996.10
2015,08,29,08,31,996.11
2015,08,29,08,32,996.11
2015,08,29,08,33,996.11
2015,08,29,08,34,996.11
2015,08,29,08,35,996.11
2015,08,29,08,36,996.11
2015,08,29,08,37,996.11
2015,08,29,08,38,996.11
2015,08,29,08,39,996.11
2015,08,29,08,40,996.11
2015,08,29,08,41,996.11
2015,08,29,08,42,996.11
2015,08,29,08,43,996.11
2015,08,29,08,44,996.11
2015,08,29,08,45,996.21
2015,08,29,08,46,996.21
2015,08,29,08,47,996.21
2015,08,29,08,48,996.21
2015,08,29,08,49,996.21
2015,08,29,08,50,996.21
2015,08,29,08,51,996.21
2015,08,29,08,52,996.21
2015,08,29,08,53,996.21
2015,08,29,08,54,996.21
2015,08,29,08,55,996.21
2015,08,29,08,56,996.21
2015,08,29,08,57,996.21
2015,08,29,08,58,996.21
2015,08,29,08,59,996.21
2015,08,29,09,00,995.84
2015,08,29,09,01,995.84
2015,08,29,09,02,995.84
2015,08,29,09,03,995.84
2015,08,29,09,04,995.84
2015,08,29,09,05,995.84
2015,08,29,09,06,995.84
2015,08,29,09,07,995.84
2015,08,29,09,08,995.84
2015,08,29,09,09,995.84
2015,08,29,09,10,995.84
2015,08,29,09,11,995.84
2015,08,29,09,12,995.84
2015,08,29,09,13,995.84
2015,08,29,09,14,995.84
2015,08,29,09,15,995.48
2015,08,29,09,16,995.46
2015,08,29,09,17,995.46
2015,08,29,09,18,995.46
2015,08,29,09,19,995.46
2015,08,29,09,20,995.46
2015,08,29,09,21,995.46
2015,08,29,09,22,995.46
2015,08,29,09,23,995.46
2015,08,29,09,24,995.46
2015,08,29,09,25,995.46
2015,08,29,09,26,995.46
2015,08,29,09,27,995.46
2015,08,29,09,28,995.46
2015,08,29,09,29,995.46
2015,08,29,09,30,995.50
2015,08,29,09,31,995.50
2015,08,29,09,32,995.50
2015,08,29,09,33,995.50
2015,08,29,09,34,995.50
2015,08,29,09,35,995.50
2015,08,29,09,36,995.50
2015,08,29,09,37,995.50
2015,08,29,09,38,995.50
2015,08,29,09,39,995.50
2015,08,29,09,40,995.50
2015,08,29,09,41,995.50
2015,08,29,09,42,995.50
2015,08,29,09,43,995.50
2015,08,29,09,44,995.50
2015,08,29,09,45,995.37
2015,08,29,09,46,995.36
2015,08,29,09,47,995.36
2015,08,29,09,48,995.36
2015,08,29,09,49,995.36
2015,08,29,09,50,995.36
2015,08,29,09,51,995.36
2015,08,29,09,52,995.36
2015,08,29,09,53,995.36
2015,08,29,09,54,995.36
2015,08,29,09,55,995.36
2015,08,29,09,56,995.36
2015,08,29,09,57,995.36
2015,08,29,09,58,995.36
2015,08,29,09,59,995.36
2015,08,29,10,00,995.13
2015,08,29,10,01,995.12
2015,08,29,10,02,995.12
2015,08,29,10,03,995.12
2015,08,29,10,04,995.12
2015,08,29,10,05,995.12
2015,08,29,10,06,995.12
2015,08,29,10,07,995.12
2015,08,29,10,08,995.12
2015,08,29,10,09,995.12
2015,08,29,10,10,995.12
2015,08,29,10,11,995.12
2015,08,29,10,12,995.12
2015,08,29,10,13,995.12
2015,08,29,10,14,995.12
2015,08,29,10,15,994.18
2015,08,29,10,16,994.14
2015,08,29,10,17,994.14
2015,08,29,10,18,994.14
2015,08,29,10,19,994.14
2015,08,29,10,20,994.14
2015,08,29,10,21,994.14
2015,08,29,10,22,994.14
2015,08,29,10,23,994.14
2015,08,29,10,24,994.14
2015,08,29,10,25,994.14
2015,08,29,10,26,994.14
2015,08,29,10,27,994.14
2015,08,29,10,28,994.14
2015,08,29,10,29,994.14
2015,08,29,10,30,994.07
2015,08,29,10,31,994.07
2015,08,29,10,32,994.07
2015,08,29,10,33,994.07
2015,08,29,10,34,994.07
2015,08,29,10,35,994.07
2015,08,29,10,36,994.07
2015,08,29,10,37,994.07
2015,08,29,10,38,994.07
2015,08,29,10,39,994.07
2015,08,29,10,40,994.07
2015,08,29,10,41,994.07
2015,08,29,10,42,994.07
2015,08,29,10,43,994.07
2015,08,29,10,44,994.07
2015,08,29,10,45,994.01
2015,08,29,10,46,994.01
2015,08,29,10,47,994.01
2015,08,29,10,48,994.01
2015,08,29,10,49,994.01
2015,08,29,10,50,994.01
2015,08,29,10,51,994.01
2015,08,29,10,52,994.01
2015,08,29,10,53,994.01
2015,08,29,10,54,994.01
2015,08,29,10,55,994.01
2015,08,29,10,56,994.01
2015,08,29,10,57,994.01
2015,08,29,10,58,994.01
2015,08,29,10,59,994.01
2015,08,29,11,00,994.04
2015,08,29,11,01,994.04
2015,08,29,11,02,994.04
2015,08,29,11,03,994.04
2015,08,29,11,04,994.04
2015,08,29,11,05,994.04
2015,08,29,11,06,994.04
2015,08,29,11,07,994.04
2015,08,29,11,08,994.04
2015,08,29,11,09,994.04
2015,08,29,11,10,994.04
2015,08,29,11,11,994.04
2015,08,29,11,12,994.04
2015,08,29,11,13,994.04
2015,08,29,11,14,994.04
2015,08,29,11,15,993.72
2015,08,29,11,16,993.70
2015,08,29,11,17,993.70
2015,08,29,11,18,993.70
2015,08,29,11,19,993.70
2015,08,29,11,20,993.70
2015,08,29,11,21,993.70
2015,08,29,11,22,993.70
2015,08,29,11,23,993.70
2015,08,29,11,24,993.70
2015,08,29,11,25,993.70
2015,08,29,11,26,993.70
2015,08,29,11,27,993.70
2015,08,29,11,28,993.70
2015,08,29,11,29,993.70
2015,08,29,11,30,993.96
2015,08,29,11,31,993.97
2015,08,29,11,32,993.97
2015,08,29,11,33,993.97
2015,08,29,11,34,993.97
2015,08,29,11,35,993.97
2015,08,29,11,36,993.97
2015,08,29,11,37,993.97
2015,08,29,11,38,993.97
2015,08,29,11,39,993.97
2015,08,29,11,40,993.97
2015,08,29,11,41,993.97
2015,08,29,11,42,993.97
2015,08,29,11,43,993.97
2015,08,29,11,44,993.97
2015,08,29,11,45,994.53
2015,08,29,11,46,994.55
2015,08,29,11,47,994.55
2015,08,29,11,48,994.55
2015,08,29,11,49,994.55
2015,08,29,11,50,994.55
2015,08,29,11,51,994.55
2015,08,29,11,52,994.55
2015,08,29,11,53,994.55
2015,08,29,11,54,994.55
2015,08,29,11,55,994.55
2015,08,29,11,56,994.55
2015,08,29,11,57,994.55
2015,08,29,11,58,994.55
2015,08,29,11,59,994.55
2015,08,29,12,00,995.07
2015,08,29,12,01,995.09
2015,08,29,12,02,995.09
2015,08,29,12,03,995.09
2015,08,29,12,04,995.09
2015,08,29,12,05,995.09
2015,08,29,12,06,995.09
2015,08,29,12,07,995.09
2015,08,29,12,08,995.09
2015,08,29,12,09,995.09
2015,08,29,12,10,995.09
2015,08,29,12,11,995.09
2015,08,29,12,12,995.09
2015,08,29,12,13,995.09
2015,08,29,12,14,995.09
2015,08,29,12,15,996.06
2015,08,29,12,16,996.11
2015,08,29,12,17,996.11
2015,08,29,12,18,996.11
2015,08,29,12,19,996.11
2015,08,29,12,20,996.11
2015,08,29,12,21,996.11
2015,08,29,12,22,996.11
2015,08,29,12,23,996.11
2015,08,29,12,24,996.11
2015,08,29,12,25,996.11
2015,08,29,12,26,996.11
2015,08,29,12,27,996.11
2015,08,29,12,28,996.11
2015,08,29,12,29,996.11
2015,08,29,12,30,996.04
2015,08,29,12,31,996.04
2015,08,29,12,32,996.04
2015,08,29,12,33,996.04
2015,08,29,12,34,996.04
2015,08,29,12,35,996.04
2015,08,29,12,36,996.04
2015,08,29,12,37,996.04
2015,08,29,12,38,996.04
2015,08,29,12,39,996.04
2015,08,29,12,40,996.04
2015,08,29,12,41,996.04
2015,08,29,12,42,996.04
2015,08,29,12,43,996.04
2015,08,29,12,44,996.04
2015,08,29,12,45,996.74
2015,08,29,12,46,996.78
2015,08,29,12,47,996.78
2015,08,29,12,48,996.78
2015,08,29,12,49,996.78
2015,08,29,12,50,996.78
2015,08,29,12,51,996.78
2015,08,29,12,52,996.78
2015,08,29,12,53,996.78
2015,08,29,12,54,996.78
2015,08,29,12,55,996.78
2015,08,29,12,56,996.78
2015,08,29,12,57,996.78
2015,08,29,12,58,996.78
2015,08,29,12,59,996.78
2015,08,29,13,00,997.16
2015,08,29,13,01,997.16
2015,08,29,13,02,997.16
2015,08,29,13,03,997.16
2015,08,29,13,04,997.16
2015,08,29,13,05,997.16
2015,08,29,13,06,997.16
2015,08,29,13,07,997.16
2015,08,29,13,08,997.16
2015,08,29,13,09,997.16
2015,08,29,13,10,997.16
2015,08,29,13,11,997.16
2015,08,29,13,12,997.16
2015,08,29,13,13,997.16
2015,08,29,13,14,997.16
2015,08,29,13,15,998.12
2015,08,29,13,16,998.17
2015,08,29,13,17,998.17
2015,08,29,13,18,998.17
2015,08,29,13,19,998.17
2015,08,29,13,20,998.17
2015,08,29,13,21,998.17
2015,08,29,13,22,998.17
2015,08,29,13,23,998.17
2015,08,29,13,24,998.17
2015,08,29,13,25,998.17
2015,08,29,13,26,998.17
2015,08,29,13,27,998.17
2015,08,29,13,28,998.17
2015,08,29,13,29,998.17
2015,08,29,13,30,998.33
2015,08,29,13,31,998.34
2015,08,29,13,32,998.34
2015,08,29,13,33,998.34
2015,08,29,13,34,998.34
2015,08,29,13,35,998.34
2015,08,29,13,36,998.34
2015,08,29,13,37,998.34
2015,08,29,13,38,998.34
2015,08,29,13,39,998.34
2015,08,29,13,40,998.34
2015,08,29,13,41,998.34
2015,08,29,13,42,998.34
2015,08,29,13,43,998.34
2015,08,29,13,44,998.34
2015,08,29,13,45,999.22
2015,08,29,13,46,999.26
2015,08,29,13,47,999.26
2015,08,29,13,48,999.26
2015,08,29,13,49,999.26
2015,08,29,13,50,999.26
2015,08,29,13,51,999.26
2015,08,29,13,52,999.26
2015,08,29,13,53,999.26
2015,08,29,13,54,999.26
2015,08,29,13,55,999.26
2015,08,29,13,56,999.26
2015,08,29,13,57,999.26
2015,08,29,13,58,999.26
2015,08,29,17,52,1002.95
2015,08,29,17,53,1002.95
2015,08,29,17,54,1002.95
2015,08,29,17,55,1002.95
2015,08,29,17,56,1002.95
2015,08,29,17,57,1002.95
2015,08,29,17,58,1002.95
2015,08,29,17,59,1002.95
2015,08,29,18,00,1003.49
2015,08,29,18,01,1003.52
2015,08,29,18,02,1003.52
2015,08,29,18,03,1003.52
2015,08,29,18,04,1003.52
2015,08,29,18,05,1003.52
2015,08,29,18,06,1003.52
2015,08,29,18,07,1003.52
2015,08,29,18,08,1003.52
2015,08,29,18,09,1003.52
2015,08,29,18,10,1003.52
2015,08,29,18,11,1003.52
2015,08,29,18,12,1003.52
2015,08,29,18,13,1003.52
2015,08,29,18,14,1003.52
2015,08,29,18,15,1003.75
2015,08,29,18,16,1003.76
2015,08,29,18,17,1003.76
2015,08,29,18,18,1003.76
2015,08,29,18,19,1003.76
2015,08,29,18,20,1003.76
2015,08,29,18,21,1003.76
2015,08,29,18,22,1003.76
2015,08,29,18,23,1003.76
2015,08,29,18,24,1003.76
2015,08,29,18,25,1003.76
2015,08,29,18,26,1003.76
2015,08,29,18,27,1003.76
2015,08,29,18,28,1003.76
2015,08,29,18,29,1003.76
2015,08,29,18,30,1003.98
2015,08,29,18,31,1004.00
2015,08,29,18,32,1004.00
2015,08,29,18,33,1004.00
2015,08,29,18,34,1004.00
2015,08,29,18,35,1004.00
2015,08,29,18,36,1004.00
2015,08,29,18,37,1004.00
2015,08,29,18,38,1004.00
2015,08,29,18,39,1004.00
2015,08,29,18,40,1004.00
2015,08,29,18,41,1004.00
2015,08,29,18,42,1004.00
2015,08,29,18,43,1004.00
2015,08,29,18,44,1004.00
2015,08,29,18,45,1004.00
2015,08,29,18,46,1004.00
2015,08,29,18,47,1004.00
2015,08,29,18,48,1004.00
2015,08,29,18,49,1004.00
2015,08,29,18,50,1004.00
2015,08,29,18,51,1004.00
2015,08,29,18,52,1004.00
2015,08,29,18,53,1004.00
2015,08,29,18,54,1004.00
2015,08,29,18,55,1004.00
2015,08,29,18,56,1004.00
2015,08,29,18,57,1004.00
2015,08,29,18,58,1004.00
2015,08,29,18,59,1004.00
2015,08,29,19,00,1003.84
2015,08,29,19,01,1003.83
2015,08,29,19,02,1003.83
2015,08,29,19,03,1003.83
2015,08,29,19,04,1003.83
2015,08,29,19,05,1003.83
2015,08,29,19,06,1003.83
2015,08,29,19,07,1003.83
2015,08,29,19,08,1003.83
2015,08,29,19,09,1003.83
2015,08,29,19,10,1003.83
2015,08,29,19,11,1003.83
2015,08,29,19,12,1003.83
2015,08,29,19,13,1003.83
2015,08,29,19,14,1003.83
2015,08,29,19,15,1003.60
2015,08,29,19,16,1003.59
2015,08,29,19,17,1003.59
2015,08,29,19,18,1003.59
2015,08,29,19,19,1003.59
2015,08,29,19,20,1003.59
2015,08,29,19,21,1003.59
2015,08,29,19,22,1003.59
2015,08,29,19,23,1003.59
2015,08,29,19,24,1003.59
2015,08,29,19,25,1003.59
2015,08,29,19,26,1003.59
2015,08,29,19,27,1003.59
2015,08,29,19,28,1003.59
2015,08,29,19,29,1003.59
2015,08,29,19,30,1003.66
2015,08,29,19,31,1003.66
2015,08,29,19,32,1003.66
2015,08,29,19,33,1003.66
2015,08,29,19,34,1003.66
2015,08,29,19,35,1003.66
2015,08,29,19,36,1003.66
2015,08,29,19,37,1003.66
2015,08,29,19,38,1003.66
2015,08,29,19,39,1003.66
2015,08,29,19,40,1003.66
2015,08,29,19,41,1003.66
2015,08,29,19,42,1003.66
2015,08,29,19,43,1003.66
2015,08,29,19,44,1003.66
2015,08,29,19,45,1004.04
2015,08,29,19,46,1004.06
2015,08,29,19,47,1004.06
2015,08,29,19,48,1004.06
2015,08,29,19,49,1004.06
2015,08,29,19,50,1004.06
2015,08,29,19,51,1004.06
2015,08,29,19,52,1004.06
2015,08,29,19,53,1004.06
2015,08,29,19,54,1004.06
2015,08,29,19,55,1004.06
2015,08,29,19,56,1004.06
2015,08,29,19,57,1004.06
2015,08,29,19,58,1004.06
2015,08,29,19,59,1004.06
2015,08,29,20,00,1004.21
2015,08,29,20,01,1004.23
2015,08,29,20,02,1004.23
2015,08,29,20,03,1004.23
2015,08,29,20,04,1004.23
2015,08,29,20,05,1004.23
2015,08,29,20,06,1004.23
2015,08,29,20,07,1004.23
2015,08,29,20,08,1004.23
2015,08,29,20,09,1004.23
2015,08,29,20,10,1004.23
2015,08,29,20,11,1004.23
2015,08,29,20,12,1004.23
2015,08,29,20,13,1004.23
2015,08,29,20,14,1004.23